Location: Bavegemberg
(50.9500°N, 3.8833°E)
Time: 20:14:15
(UTC+00:00)

Cosmos 1346 Rocket - Pass Details

Date: 23 May 2024
Orbit: 508 x 521 km, 81.2° (Epoch: 14 June)

Event Time Altitude Azimuth Distance (km) Brightness Sun altitude
Rises 00:38:28 0° 346° (NNW) 2,662 7.4 -17.3°
Reaches altitude 10° 00:40:37 10° 346° (NNW) 1,770 6.3 -17.2°
Maximum altitude 00:44:31 81° 260° (W) 536 2.6 -17.1°
Enters shadow 00:45:58 37° 176° (S) 828 3.2 -17.0°
